Greenville, AL

7:26 PM CDT on April 19, 2018 (GMT -0500)
Greenville Municipal

Weather History for KPRN - December, 2014

Change the Weather History Date:

Saturday, December 13, 2014

  Actual Average Record
Temperature  
Mean Temperature 49 °F -  
Max Temperature 64 °F 61 °F 80 °F (1933)
Min Temperature 34 °F 39 °F 5 °F (1962)
Degree Days  
Heating Degree Days 16    
Moisture  
Dew Point 32 °F    
Average Humidity 55    
Maximum Humidity 86    
Minimum Humidity 20    
Precipitation  
Precipitation 0.00 in - - ()
Sea Level Pressure  
Sea Level Pressure 30.22 in    
Wind  
Wind Speed 7 mph (North)    
Max Wind Speed 14 mph    
Max Gust Speed 17 mph    
Visibility 10 miles    
Events      
Averages and records for this station are not official NWS values.
T = Trace of Precipitation, MM = Missing Value Source: NWS Daily Summary

Daily Weather History Graph

Daily Weather History Graph

Search for Another Location

Airport or City:

Astronomy

Dec. 13, 2014 Rise Set
Actual Time 6:37 AM CST 4:43 PM CST
Civil Twilight 6:10 AM CST 5:10 PM CST
Nautical Twilight 5:40 AM CST 5:40 PM CST
Astronomical Twilight 5:10 AM CST 6:10 PM CST
Moon 11:24 PM CST (12/13) 11:19 AM CST (12/13)
Length of Visible Light 10h 59m
Length of Day
10h 05m
Waning Gibbous, 57% of the Moon is Illuminated
Dec 13
Waning Gibbous
Dec 14
Last Quarter
Dec 21
New
Dec 28
First Quarter
Jan 4
Full

Hourly Weather History & Observations

Time (CST) Temp. Windchill Dew Point Humidity Pressure Visibility Wind Dir Wind Speed Gust Speed Precip Events Conditions
12:56 AM 42.1 °F 37.7 °F 28.0 °F 58% 30.26 in 10.0 mi North 6.9 mph - N/A   Clear
2:56 AM 39.9 °F - 27.0 °F 60% 30.25 in 10.0 mi Calm Calm - N/A   Clear
3:56 AM 36.0 °F 31.1 °F 27.0 °F 70% 30.24 in 10.0 mi North 5.8 mph - N/A   Clear
4:56 AM 36.0 °F 32.1 °F 27.0 °F 70% 30.25 in 10.0 mi North 4.6 mph - N/A   Clear
5:56 AM 34.0 °F 28.8 °F 27.0 °F 75% 30.26 in 10.0 mi North 5.8 mph - N/A   Clear
6:56 AM 35.1 °F 31.0 °F 27.0 °F 72% 30.27 in 10.0 mi North 4.6 mph - N/A   Clear
7:56 AM 42.1 °F 39.2 °F 28.9 °F 60% 30.28 in 10.0 mi North 4.6 mph - N/A   Clear
8:56 AM 48.9 °F - 27.0 °F 43% 30.29 in 10.0 mi North 9.2 mph - N/A   Clear
9:56 AM 55.9 °F - 21.0 °F 26% 30.28 in 10.0 mi North 9.2 mph - N/A   Clear
10:56 AM 59.0 °F - 17.1 °F 20% 30.26 in 10.0 mi NNW 11.5 mph - N/A   Clear
11:56 AM 62.1 °F - 24.1 °F 23% 30.23 in 10.0 mi North 13.8 mph - N/A   Clear
12:56 PM 63.0 °F - 30.9 °F 30% 30.19 in 10.0 mi NNW 11.5 mph 17.3 mph N/A   Clear
1:56 PM 64.0 °F - 32.0 °F 30% 30.17 in 10.0 mi North 12.7 mph 17.3 mph N/A   Clear
2:56 PM 64.0 °F - 35.1 °F 34% 30.17 in 10.0 mi Variable 5.8 mph - N/A   Clear
3:56 PM 63.0 °F - 37.9 °F 40% 30.17 in 10.0 mi North 8.1 mph - N/A   Clear
4:56 PM 59.0 °F - 39.9 °F 49% 30.17 in 10.0 mi NW 4.6 mph - N/A   Clear
5:56 PM 55.0 °F - 39.9 °F 57% 30.17 in 10.0 mi NW 4.6 mph - N/A   Clear
6:56 PM 53.1 °F - 39.9 °F 61% 30.19 in 10.0 mi NNW 8.1 mph - N/A   Clear
7:56 PM 51.1 °F - 39.0 °F 63% 30.19 in 10.0 mi North 9.2 mph - N/A   Clear
8:56 PM 48.9 °F - 41.0 °F 74% 30.20 in 10.0 mi North 5.8 mph - N/A   Clear
9:56 PM 46.9 °F - 41.0 °F 80% 30.19 in 10.0 mi North 8.1 mph - N/A   Clear
10:56 PM 45.0 °F 42.6 °F 39.9 °F 82% 30.19 in 10.0 mi NNW 4.6 mph - N/A   Clear
11:56 PM 43.0 °F 41.3 °F 39.0 °F 86% 30.17 in 10.0 mi North 3.5 mph - N/A   Clear